Flag for Canada Weather past 2 weeks in Pond Inlet, Nunavut Territory, Canada

Now
21 °F

Overcast.


Feels Like: 9 °F
Forecast: 17 / 29 °F
Wind: 12 mph from Southeast

Location: Pond Inlet

Current Time: Sep 23, 2014 at 9:23:18 PM

Latest Report: Sep 23, 2014 at 9:00 PM


Visibility: 9 mi

Pressure: 29.59 "Hg

Humidity: 86%

Dew point: 18 °F

Location of Pond InletLocation

Historic Weather in Pond Inlet — Graph

°F

Pond Inlet temperature yesterday

Maximum temperature yesterday: 30 °F (at 1:53 PM)
Minimum temperature yesterday: 23 °F (at 11:00 PM)
Average temperature yesterday: 27 °F

Past Weeks' High & Low Weather Summary

 TemperatureHumidityPressure
High39 °F (Sep 9, 5:00 PM)100% (Sep 11, 9:00 PM)29.93 "Hg (Sep 11, 9:00 PM)
Low19 °F (Sep 17, 1:00 AM)60% (Sep 13, 1:00 PM)29.21 "Hg (Sep 13, 3:00 PM)
Average30 °F85%29.61 "Hg
* Reported Sep 8 8:00 PM — Sep 23 8:00 PM, Pond Inlet, Weather by CustomWeather, © 2014

Note: Actual official high and low records may vary slightly from our data, if they occured in-between our weather recording intervals... More about our weather records

Advertising

Pond Inlet weather history for previous 24 hours

 ConditionsComfort  
Time TempWeatherWind HumidityBarometerVisibility
8:00 PM
Sep 23
23 °FLight snow. Overcast.10 mph93%29.62 "Hg3 mi
7:00 PM23 °FOvercast.9 mph93%29.64 "Hg30 mi
6:00 PM23 °FPartly sunny.7 mph100%29.67 "Hg40 mi
5:00 PM23 °FPartly sunny.9 mph86%29.68 "Hg40 mi
4:00 PM23 °FPartly sunny.10 mph86%29.70 "Hg35 mi
3:00 PM23 °FPartly sunny.9 mph86%29.73 "Hg35 mi
2:00 PM25 °FPartly sunny.5 mph80%29.74 "Hg35 mi
1:00 PM23 °FPartly sunny.8 mph86%29.76 "Hg35 mi
12:00 PM23 °FPartly sunny.12 mph80%29.78 "Hg35 mi
11:00 AM23 °FPartly sunny.12 mph86%29.80 "Hg30 mi
10:00 AM25 °FOvercast.6 mph80%29.81 "Hg9 mi
9:00 AM25 °FOvercast.7 mph80%29.83 "Hg9 mi
8:00 AM25 °FOvercast.7 mph74%29.84 "Hg9 mi
7:00 AM23 °FOvercast.8 mph80%29.85 "Hg9 mi
6:00 AM21 °FOvercast.5 mph86%29.85 "Hg9 mi
5:00 AM23 °FOvercast.2 mph86%29.85 "Hg9 mi
4:00 AM25 °FLight snow. Overcast.6 mph86%29.85 "Hg9 mi
3:00 AM25 °FOvercast.8 mph86%29.84 "Hg9 mi
2:56 AM25 °FOvercast.8 mph86%29.84 "Hg9 mi
2:00 AM25 °FLight snow. Overcast.6 mph86%29.83 "Hg9 mi
1:00 AM25 °FOvercast.7 mph86%29.83 "Hg9 mi
11:00 PM
Sep 22
23 °FOvercast.7 mph93%29.81 "Hg9 mi
10:50 PM25 °FOvercast.7 mph86%29.81 "Hg9 mi
10:00 PM25 °FOvercast.9 mph86%29.81 "Hg9 mi
9:59 PM25 °FLight snow. Overcast.8 mph86%29.81 "Hg9 mi
9:00 PM28 °FLight snow. Overcast.5 mph74%29.80 "Hg9 mi
Weather by CustomWeather, © 2014

See weather overviewHow to use our weather pages